Radiation Dose at Monitoring Post of Fukushima Daini Nuclear Power Station
Date,Time,MP-1(microSv/h),MP-2(microSv/h),MP-3(microSv/h),MP-4(microSv/h),MP-5(microSv/h),MP-6(microSv/h),MP-7(microSv/h),Wind Direction,Wind Velocity(m/s),Rain
2022/07/15,00:00,0.144,0.136,0.212,0.206,0.209,0.114,0.074,southeast,1.6,Yes
2022/07/15,00:10,0.145,0.134,0.212,0.206,0.207,0.114,0.074,southeast,1.3,Yes
2022/07/15,00:20,0.145,0.136,0.213,0.205,0.210,0.115,0.075,southeast,1.7,Yes
2022/07/15,00:30,0.144,0.135,0.213,0.206,0.209,0.115,0.075,southeast,2.0,Yes
2022/07/15,00:40,0.146,0.137,0.215,0.207,0.208,0.116,0.075,southeast,1.6,Yes
2022/07/15,00:50,0.147,0.137,0.215,0.207,0.211,0.116,0.076,southeast,1.8,Yes
2022/07/15,01:00,0.145,0.137,0.214,0.208,0.210,0.117,0.076,east-southeast,1.5,Yes
2022/07/15,01:10,0.147,0.138,0.214,0.206,0.210,0.116,0.077,east-southeast,1.5,Yes
2022/07/15,01:20,0.146,0.138,0.212,0.207,0.212,0.116,0.076,east-southeast,2.7,Yes
2022/07/15,01:30,0.146,0.137,0.215,0.208,0.209,0.116,0.075,southeast,1.9,Yes
2022/07/15,01:40,0.148,0.138,0.214,0.206,0.209,0.116,0.076,south-southeast,4.0,Yes
2022/07/15,01:50,0.147,0.137,0.214,0.207,0.211,0.117,0.077,south,2.5,Yes
2022/07/15,02:00,0.147,0.138,0.215,0.208,0.211,0.118,0.078,south-southeast,1.5,Yes
2022/07/15,02:10,0.148,0.139,0.214,0.206,0.212,0.118,0.079,southeast,1.8,Yes
2022/07/15,02:20,0.147,0.138,0.214,0.208,0.213,0.116,0.077,south-southeast,1.8,Yes
2022/07/15,02:30,0.147,0.139,0.216,0.208,0.210,0.117,0.077,south,1.1,Yes
2022/07/15,02:40,0.147,0.138,0.213,0.206,0.212,0.117,0.077,south,1.2,Yes
2022/07/15,02:50,0.146,0.138,0.216,0.208,0.211,0.116,0.076,south-southeast,2.3,Yes
2022/07/15,03:00,0.147,0.139,0.214,0.206,0.209,0.117,0.077,south-southeast,2.8,Yes
2022/07/15,03:10,0.147,0.137,0.213,0.207,0.212,0.116,0.078,south-southeast,2.9,Yes
2022/07/15,03:20,0.146,0.138,0.215,0.208,0.211,0.116,0.076,south-southeast,2.1,Yes
2022/07/15,03:30,0.147,0.138,0.213,0.205,0.209,0.115,0.076,south-southeast,2.2,Yes
2022/07/15,03:40,0.146,0.136,0.213,0.207,0.211,0.116,0.075,southeast,1.3,Yes
2022/07/15,03:50,0.145,0.135,0.214,0.206,0.208,0.115,0.075,south,3.4,Yes
2022/07/15,04:00,0.146,0.135,0.211,0.204,0.208,0.115,0.075,south,3.2,Yes
2022/07/15,04:10,0.145,0.136,0.214,0.206,0.211,0.114,0.075,south,3.4,Yes
2022/07/15,04:20,0.144,0.137,0.213,0.205,0.209,0.114,0.075,south,3.6,Yes
2022/07/15,04:30,0.146,0.135,0.211,0.206,0.209,0.115,0.074,south,4.2,Yes
2022/07/15,04:40,0.144,0.136,0.213,0.205,0.212,0.115,0.074,south,4.7,Yes
2022/07/15,04:50,0.144,0.136,0.210,0.203,0.207,0.114,0.074,south,4.1,Yes
2022/07/15,05:00,0.146,0.134,0.213,0.205,0.210,0.115,0.074,south,3.2,No
2022/07/15,05:10,0.145,0.136,0.212,0.206,0.209,0.114,0.074,south-southeast,2.9,No
2022/07/15,05:20,0.145,0.135,0.210,0.204,0.207,0.115,0.075,south-southeast,1.8,No
2022/07/15,05:30,0.145,0.136,0.213,0.206,0.210,0.116,0.074,south-southeast,1.2,No
2022/07/15,05:40,0.144,0.135,0.211,0.205,0.210,0.114,0.074,-,CALM,Yes
2022/07/15,05:50,0.145,0.135,0.210,0.205,0.207,0.114,0.075,south-southwest,1.3,Yes
2022/07/15,06:00,0.146,0.136,0.213,0.206,0.210,0.114,0.075,southwest,1.8,Yes
2022/07/15,06:10,0.144,0.136,0.211,0.204,0.209,0.115,0.074,south-southwest,1.7,No
2022/07/15,06:20,0.144,0.135,0.212,0.204,0.208,0.115,0.074,south,1.2,Yes
2022/07/15,06:30,0.146,0.136,0.214,0.208,0.209,0.115,0.074,south-southeast,1.4,Yes
2022/07/15,06:40,0.144,0.136,0.211,0.204,0.210,0.114,0.074,south,1.5,Yes
2022/07/15,06:50,0.145,0.135,0.211,0.206,0.208,0.113,0.075,south-southwest,1.8,Yes
2022/07/15,07:00,0.145,0.136,0.214,0.207,0.207,0.115,0.074,south,2.1,No
2022/07/15,07:10,0.144,0.136,0.212,0.206,0.210,0.114,0.074,south,2.1,No
2022/07/15,07:20,0.143,0.134,0.211,0.204,0.209,0.113,0.075,south,2.2,No
2022/07/15,07:30,0.146,0.136,0.214,0.206,0.206,0.115,0.075,south-southeast,2.2,No
2022/07/15,07:40,0.144,0.136,0.212,0.205,0.210,0.114,0.074,south-southeast,2.4,No
2022/07/15,07:50,0.144,0.134,0.211,0.204,0.210,0.114,0.074,south-southeast,1.8,No
2022/07/15,08:00,0.146,0.136,0.213,0.205,0.208,0.115,0.075,south-southeast,1.9,No
2022/07/15,08:10,0.145,0.137,0.213,0.207,0.208,0.115,0.074,south-southeast,2.1,Yes
2022/07/15,08:20,0.144,0.137,0.213,0.205,0.212,0.114,0.075,southeast,2.0,Yes
2022/07/15,08:30,0.145,0.135,0.212,0.205,0.212,0.114,0.075,southeast,1.7,Yes
2022/07/15,08:40,0.146,0.137,0.216,0.207,0.209,0.116,0.076,-,CALM,Yes
2022/07/15,08:50,0.145,0.138,0.215,0.207,0.211,0.116,0.076,south-southeast,0.6,Yes
2022/07/15,09:00,0.145,0.136,0.212,0.206,0.210,0.115,0.075,south-southeast,1.1,Yes
2022/07/15,09:10,0.145,0.136,0.211,0.204,0.209,0.114,0.075,southeast,1.4,No
2022/07/15,09:20,0.147,0.136,0.211,0.204,0.209,0.115,0.075,southeast,1.6,No
2022/07/15,09:30,0.145,0.135,0.215,0.204,0.207,0.114,0.076,southeast,1.8,No
2022/07/15,09:40,0.145,0.135,0.214,0.205,0.208,0.115,0.075,southeast,2.7,No
2022/07/15,09:50,0.145,0.135,0.213,0.204,0.207,0.114,0.074,southeast,2.2,No
2022/07/15,10:00,0.145,0.135,0.211,0.205,0.209,0.115,0.075,east-southeast,2.2,No
2022/07/15,10:10,0.143,0.136,0.212,0.205,0.210,0.114,0.075,east-southeast,1.9,No
2022/07/15,10:20,0.144,0.137,0.211,0.204,0.207,0.116,0.074,east-southeast,1.5,No
2022/07/15,10:30,0.146,0.137,0.212,0.205,0.208,0.116,0.074,east-southeast,1.8,No
2022/07/15,10:40,0.147,0.136,0.213,0.204,0.209,0.115,0.074,east-southeast,2.0,No
2022/07/15,10:50,0.145,0.135,0.212,0.206,0.209,0.115,0.074,east,1.3,No
2022/07/15,11:00,0.145,0.136,0.212,0.207,0.208,0.115,0.074,east,1.6,Yes
2022/07/15,11:10,0.144,0.135,0.212,0.206,0.209,0.115,0.074,east-southeast,1.4,No
2022/07/15,11:20,0.144,0.135,0.213,0.208,0.213,0.115,0.075,southeast,1.1,Yes
2022/07/15,11:30,0.147,0.136,0.215,0.207,0.211,0.115,0.075,east-southeast,1.5,No
2022/07/15,11:40,0.147,0.137,0.215,0.207,0.210,0.115,0.074,east-southeast,2.5,No
2022/07/15,11:50,0.146,0.136,0.213,0.205,0.209,0.114,0.074,east-southeast,2.3,No
2022/07/15,12:00,0.145,0.135,0.212,0.204,0.208,0.115,0.074,east-southeast,2.3,No
2022/07/15,12:10,0.144,0.135,0.212,0.208,0.209,0.115,0.074,east-southeast,2.4,No
2022/07/15,12:20,0.145,0.137,0.215,0.208,0.213,0.115,0.074,southeast,2.1,Yes
2022/07/15,12:30,0.146,0.136,0.216,0.207,0.211,0.116,0.074,southeast,1.9,Yes
2022/07/15,12:40,0.146,0.136,0.214,0.206,0.209,0.115,0.075,southeast,1.7,Yes
2022/07/15,12:50,0.145,0.135,0.213,0.206,0.209,0.116,0.074,southeast,1.6,No
2022/07/15,13:00,0.145,0.136,0.212,0.204,0.207,0.116,0.073,southeast,1.1,No
2022/07/15,13:10,0.145,0.136,0.212,0.206,0.208,0.116,0.074,east-southeast,1.3,No
2022/07/15,13:20,0.147,0.138,0.214,0.209,0.211,0.115,0.074,east-southeast,1.8,No
2022/07/15,13:30,0.146,0.137,0.215,0.208,0.212,0.114,0.074,east,1.6,No
2022/07/15,13:40,0.146,0.136,0.215,0.207,0.211,0.114,0.075,northeast,1.1,No
2022/07/15,13:50,0.145,0.136,0.213,0.206,0.211,0.116,0.074,northeast,1.0,No
2022/07/15,14:00,0.144,0.136,0.212,0.205,0.210,0.116,0.074,east-northeast,1.0,No
2022/07/15,14:10,0.147,0.137,0.211,0.205,0.210,0.116,0.074,east-northeast,1.3,Yes
2022/07/15,14:20,0.146,0.137,0.215,0.209,0.208,0.114,0.074,east-northeast,1.8,Yes
2022/07/15,14:30,0.146,0.136,0.215,0.208,0.212,0.115,0.074,east,1.9,Yes
2022/07/15,14:40,0.144,0.136,0.214,0.207,0.213,0.116,0.074,east-southeast,1.5,Yes
2022/07/15,14:50,0.146,0.137,0.214,0.206,0.210,0.115,0.075,east,1.5,Yes
2022/07/15,15:00,0.146,0.137,0.217,0.210,0.209,0.115,0.075,east-northeast,1.3,Yes
2022/07/15,15:10,0.145,0.136,0.215,0.208,0.214,0.115,0.074,northeast,1.1,Yes
2022/07/15,15:20,0.146,0.137,0.215,0.206,0.211,0.115,0.075,northeast,1.4,Yes
2022/07/15,15:30,0.147,0.136,0.216,0.209,0.209,0.115,0.075,north-northeast,1.7,Yes
2022/07/15,15:40,0.145,0.136,0.215,0.208,0.210,0.115,0.074,north-northeast,2.3,Yes
2022/07/15,15:50,0.145,0.137,0.214,0.206,0.212,0.115,0.074,north,2.4,Yes
2022/07/15,16:00,0.146,0.137,0.214,0.205,0.211,0.116,0.075,north-northeast,2.6,No
2022/07/15,16:10,0.147,0.137,0.216,0.208,0.209,0.114,0.075,north,2.6,Yes
2022/07/15,16:20,0.145,0.136,0.214,0.208,0.210,0.114,0.074,north,3.2,Yes
2022/07/15,16:30,0.146,0.138,0.213,0.206,0.212,0.115,0.074,north,2.6,Yes
2022/07/15,16:40,0.146,0.136,0.215,0.206,0.212,0.116,0.075,north,3.0,Yes
2022/07/15,16:50,0.145,0.136,0.215,0.208,0.209,0.115,0.074,north,3.1,Yes
2022/07/15,17:00,0.145,0.138,0.212,0.206,0.211,0.115,0.075,north,3.6,Yes
2022/07/15,17:10,0.147,0.136,0.216,0.206,0.210,0.116,0.075,north,3.7,Yes
2022/07/15,17:20,0.145,0.137,0.214,0.208,0.209,0.115,0.074,north,4.6,Yes
2022/07/15,17:30,0.145,0.137,0.212,0.206,0.210,0.115,0.074,north,4.6,Yes
2022/07/15,17:40,0.147,0.135,0.215,0.206,0.211,0.116,0.075,north,3.8,Yes
2022/07/15,17:50,0.146,0.137,0.214,0.209,0.208,0.115,0.074,north,5.4,Yes
2022/07/15,18:00,0.145,0.136,0.213,0.206,0.209,0.116,0.074,north,5.3,Yes
2022/07/15,18:10,0.147,0.136,0.216,0.206,0.210,0.116,0.075,north,5.4,Yes
2022/07/15,18:20,0.146,0.137,0.213,0.208,0.209,0.115,0.074,north,4.9,Yes
2022/07/15,18:30,0.145,0.136,0.212,0.206,0.210,0.115,0.074,north,4.7,Yes
2022/07/15,18:40,0.145,0.136,0.215,0.206,0.212,0.116,0.075,north,3.5,Yes
2022/07/15,18:50,0.146,0.137,0.212,0.207,0.209,0.115,0.075,north,4.2,Yes
2022/07/15,19:00,0.145,0.136,0.216,0.206,0.209,0.115,0.074,north,4.2,Yes
2022/07/15,19:10,0.148,0.137,0.215,0.207,0.212,0.116,0.075,north,4.4,Yes
2022/07/15,19:20,0.145,0.137,0.212,0.207,0.209,0.116,0.074,north-northwest,4.0,Yes
2022/07/15,19:30,0.145,0.136,0.215,0.205,0.210,0.115,0.074,north-northwest,4.6,Yes
2022/07/15,19:40,0.147,0.137,0.213,0.207,0.211,0.115,0.075,north-northwest,4.2,Yes
2022/07/15,19:50,0.146,0.137,0.212,0.208,0.208,0.115,0.075,north,5.0,Yes
2022/07/15,20:00,0.146,0.136,0.215,0.205,0.210,0.115,0.075,north-northwest,4.5,Yes
2022/07/15,20:10,0.148,0.137,0.213,0.207,0.211,0.115,0.075,north,4.4,Yes
2022/07/15,20:20,0.147,0.136,0.213,0.207,0.209,0.117,0.076,north-northwest,4.3,Yes
2022/07/15,20:30,0.145,0.138,0.214,0.205,0.211,0.115,0.076,north-northwest,3.5,Yes
2022/07/15,20:40,0.147,0.138,0.214,0.209,0.212,0.118,0.077,north-northwest,3.9,Yes
2022/07/15,20:50,0.147,0.137,0.214,0.207,0.210,0.117,0.076,north-northwest,3.4,Yes
2022/07/15,21:00,0.147,0.138,0.215,0.205,0.211,0.116,0.077,north-northwest,4.3,Yes
2022/07/15,21:10,0.149,0.138,0.212,0.208,0.211,0.118,0.077,north-northwest,4.0,Yes
2022/07/15,21:20,0.149,0.139,0.215,0.206,0.211,0.118,0.078,north-northwest,4.0,Yes
2022/07/15,21:30,0.149,0.139,0.215,0.207,0.213,0.116,0.079,north-northwest,4.1,Yes
2022/07/15,21:40,0.150,0.140,0.214,0.208,0.212,0.116,0.078,north-northwest,4.7,Yes
2022/07/15,21:50,0.148,0.138,0.214,0.206,0.210,0.116,0.077,north-northwest,4.9,Yes
2022/07/15,22:00,0.149,0.140,0.212,0.207,0.211,0.116,0.076,north-northwest,4.5,Yes
2022/07/15,22:10,0.148,0.137,0.213,0.207,0.211,0.116,0.077,north-northwest,3.8,Yes
2022/07/15,22:20,0.146,0.138,0.212,0.205,0.207,0.116,0.076,northwest,4.0,Yes
2022/07/15,22:30,0.146,0.137,0.212,0.205,0.211,0.115,0.076,north-northwest,4.6,No
2022/07/15,22:40,0.146,0.136,0.214,0.207,0.209,0.114,0.075,northwest,5.2,No
2022/07/15,22:50,0.145,0.137,0.211,0.203,0.207,0.116,0.075,northwest,4.6,Yes
2022/07/15,23:00,0.145,0.136,0.212,0.205,0.211,0.115,0.076,northwest,4.1,Yes
2022/07/15,23:10,0.145,0.135,0.212,0.205,0.209,0.115,0.075,northwest,4.1,Yes
2022/07/15,23:20,0.144,0.136,0.212,0.203,0.208,0.116,0.075,northwest,3.7,Yes
2022/07/15,23:30,0.145,0.135,0.211,0.206,0.210,0.114,0.075,northwest,3.1,Yes
2022/07/15,23:40,0.145,0.135,0.213,0.206,0.210,0.115,0.075,northwest,2.9,Yes
2022/07/15,23:50,0.144,0.137,0.212,0.205,0.208,0.115,0.075,northwest,2.7,Yes
